Preview of NWS' New Version of Forecast
This preview is not operational and should not be used for support decisions.

Regional Weather Roundup (RWR)

Issued by National Weather Service (NWS)

                            
000
ASUS46 KPQR 232010
RWROR 

OREGON REGIONAL WEATHER ROUNDUP
NATIONAL WEATHER SERVICE PORTLAND OR
100 PM PDT TUE APR 23 2019

NOTE: "FAIR" INDICATES FEW OR NO CLOUDS BELOW 12,000 FEET WITH
NO SIGNIFICANT WEATHER AND/OR OBSTRUCTIONS TO VISIBILITY.

ORZ001>013-232100-
NORTHWEST OREGON

  
CITY           SKY/WX    TMP DP  RH WIND       PRES   REMARKS
ASTORIA        CLOUDY    52  47  83 NW14      30.25R                  
TILLAMOOK      CLOUDY    54  50  87 CALM      30.27F                  
NEWPORT        CLOUDY    52  52 100 NW10      30.30S FOG              
PORTLAND       PTSUNNY   63  50  62 N5        30.21F                  
VANCOUVER WA   PTSUNNY   63  51  65 S5        30.20F                  
SCAPPOOSE      CLOUDY    64  52  64 N5        30.20S                  
HILLSBORO      PTSUNNY   63  49  60 CALM      30.20F                  
AURORA         CLOUDY    63  53  70 S9        30.22F                  
MCMINNVILLE    CLOUDY    64  53  67 SW10      30.21S                  
SALEM          CLOUDY    62  52  69 CALM      30.21S                  
CORVALLIS      CLOUDY    62  54  74 NW9       30.23S                  
EUGENE         PTSUNNY   66  55  67 CALM      30.22F                  
$$

ORZ021-028-232100-
SOUTHWEST OREGON

  
CITY           SKY/WX    TMP DP  RH WIND       PRES   REMARKS
NORTH BEND     CLOUDY    61  55  81 N13       30.25F                  
BROOKINGS      SUNNY     75  56  51 NW12      30.16F                  
ROSEBURG       MOSUNNY   73  52  47 CALM      30.18F                  
SEXTON SUMMIT  SUNNY     64  49  57 NW5       30.25F                  
GRANTS PASS    FAIR      73  50  43 CALM      30.19F                  
MEDFORD        SUNNY     75  48  38 N6        30.16F                  
$$

ORZ014>016-041-232100-
COLUMBIA GORGE

  
CITY           SKY/WX    TMP DP  RH WIND       PRES   REMARKS
TROUTDALE      CLOUDY    61  52  72 NE3       30.22R                  
HOOD RIVER     MOSUNNY   63  50  63 MISG      30.16F                  
THE DALLES     MOSUNNY   68  50  52 NW24G30   30.12F                  
$$

ORZ029>031-041-044-049-050-061>064-502-503-505>511-232100-
EASTERN OREGON

  
CITY           SKY/WX    TMP DP  RH WIND       PRES   REMARKS
MADRAS         CLOUDY    68  48  49 SW14      30.16S                  
REDMOND        PTSUNNY   68  47  46 MISG      30.16F                  
BEND           MOSUNNY   68  46  45 CALM      30.17F                  
PRINEVILLE     MOSUNNY   66  46  48 CALM      30.17F                  
KLAMATH FALLS  SUNNY     69  48  47 VRB5      30.21F                  
LAKEVIEW       PTSUNNY   68  47  46 SE8       30.23F                  
HERMISTON      SUNNY     74  51  44 SW23G31   30.07F                  
PENDLETON      CLOUDY    67  53  61 W20       30.08F                  
JOHN DAY       PTSUNNY   66  49  55 W9G16     30.18S                  
MEACHAM        LGT RAIN  60  49  66 VRB5      30.15F                  
LA GRANDE      LGT RAIN  66  51  58 W7        30.12F                  
BAKER CITY     MOSUNNY   73  44  35 E5        30.12F                  
BURNS          MOSUNNY   65  45  48 SW6       30.19F                  
ROME             N/A     69  41  36 MISG      30.16F                  
ONTARIO        MOSUNNY   76  49  38 N3        30.12F                  
$$